FW9816 Weather Reports


time (UTC)temp
C
wind
direction
speed
KPH
gust
KPH
rain 1hr
cm
rain 24hr
cm
rain mn
cm
humidity
%
barometer
mb
20260504223051 20 0 1.6 12.9 0.00 0.00 0.00 38 1008.0
20260504221559 20 0 3.2 14.5 0.00 0.00 0.00 35 1008.0
20260504220054 20 0 4.8 16.1 0.00 0.00 0.00 35 1008.0
20260504214551 20 257 3.2 9.7 0.00 0.00 0.00 36 1008.0
20260504213051 20 10 1.6 8.0 0.00 0.00 0.00 36 1008.1
20260504211553 20 277 1.6 14.5 0.00 0.00 0.00 34 1008.2
20260504210107 21 269 3.2 14.5 0.00 0.00 0.00 34 1008.1
20260504204602 21 349 3.2 17.7 0.00 0.00 0.00 35 1008.2
20260504203058 21 314 4.8 19.3 0.00 0.00 0.00 32 1008.1
20260504201554 21 279 1.6 12.9 0.00 0.00 0.00 32 1008.1
20260504200100 21 290 4.8 14.5 0.00 0.00 0.00 32 1008.2
20260504194608 21 223 6.4 19.3 0.00 0.00 0.00 32 1008.2
20260504193055 21 40 3.2 19.3 0.00 0.00 0.00 33 1008.3
20260504191554 21 260 3.2 14.5 0.00 0.00 0.00 30 1008.2
20260504190117 21 87 3.2 17.7 0.00 0.00 0.00 31 1008.5
20260504184559 21 128 4.8 16.1 0.00 0.00 0.00 30 1008.5
20260504183056 21 294 3.2 22.5 0.00 0.00 0.00 30 1008.9
20260504181558 21 38 3.2 19.3 0.00 0.00 0.00 38 1008.7
20260504180144 21 86 3.2 17.7 0.00 0.00 0.00 34 1008.7
20260504174556 21 288 3.2 20.9 0.00 0.00 0.00 33 1008.9
20260504173113 21 178 6.4 16.1 0.00 0.00 0.00 31 1008.9
20260504171556 21 244 3.2 20.9 0.00 0.00 0.00 32 1009.1
20260504140109 17 296 1.6 14.5 0.00 0.00 0.00 42 1010.7
20260504120111 10 20 1.6 9.7 0.00 0.00 0.00 58 1011.8
20260504081552 6 0 0.0 3.2 0.00 0.00 0.00 69 1011.5
20260504070157 6 0 0.0 0.0 0.00 0.00 0.00 59 1011.3
20260504050136 4 0 0.0 3.2 0.00 0.00 0.00 71 1011.4
20260504044558 4 0 0.0 3.2 0.00 0.00 0.00 69 1011.4
20260504043058 4 0 0.0 1.6 0.00 0.00 0.00 66 1011.4
20260504041552 4 0 0.0 1.6 0.00 0.00 0.00 67 1011.4
20260504034553 5 140 0.0 3.2 0.00 0.00 0.00 65 1011.2
20260504033058 5 140 0.0 3.2 0.00 0.00 0.00 63 1011.2
20260504031624 5 0 0.0 3.2 0.00 0.00 0.00 64 1011.2
20260504030054 5 0 0.0 3.2 0.00 0.00 0.00 62 1011.2
20260504024606 5 140 0.0 3.2 0.00 0.00 0.00 60 1011.1
20260504023055 5 140 0.0 3.2 0.00 0.00 0.00 60 1011.0
20260504021612 6 140 0.0 3.2 0.00 0.00 0.00 59 1010.9
20260504014557 6 0 0.0 1.6 0.00 0.00 0.00 59 1010.7
20260504013102 6 0 0.0 3.2 0.00 0.00 0.00 60 1010.7
20260504011554 6 0 0.0 1.6 0.00 0.00 0.00 57 1010.7
20260504010113 6 0 0.0 3.2 0.00 0.00 0.00 58 1010.5
20260504004556 6 0 0.0 1.6 0.00 0.00 0.00 57 1010.3
20260504003055 6 0 0.0 1.6 0.00 0.00 0.00 56 1010.2
20260504001609 7 0 0.0 3.2 0.00 0.00 0.00 55 1010.1
20260504000059 7 0 1.6 3.2 0.00 0.00 0.00 53 1009.9
20260503234551 8 0 0.0 3.2 0.00 0.00 0.00 53 1009.8
20260503233052 9 0 0.0 1.6 0.00 0.00 0.00 48 1009.6
20260503231554 9 205 0.0 4.8 0.00 0.00 0.00 47 1009.6
20260503230051 9 287 0.0 6.4 0.00 0.00 0.00 45 1009.4
20260503224554 10 209 1.6 9.7 0.00 0.00 0.00 46 1009.1